Flag for Canada Weather past 2 weeks in Coral Harbour, Nunavut Territory, Canada

Now
37 °F

Passing clouds.


Feels Like: 29 °F
Forecast: 33 / 50 °F
Wind: 14 mph from North

Location: Coral Harbour

Current Time: Aug 30, 2014 at 10:03:01 PM

Latest Report: Aug 30, 2014 at 9:00 PM


Visibility: 15 mi

Pressure: 29.48 "Hg

Humidity: 87%

Dew point: 34 °F

Location of Coral HarbourLocation

Historic Weather in Coral Harbour — Graph

°F

Coral Harbour temperature yesterday

Maximum temperature yesterday: 46 °F (at 11:00 AM)
Minimum temperature yesterday: 41 °F (at 1:00 AM)
Average temperature yesterday: 43 °F

Past Weeks' High & Low Weather Summary

 TemperatureHumidityPressure
High59 °F (Aug 24, 4:00 PM)100% (Aug 18, 8:00 AM)30.33 "Hg (Aug 18, 8:00 AM)
Low32 °F (Aug 17, 4:00 AM)51% (Aug 24, 3:00 PM)29.16 "Hg (Aug 30, 12:00 AM)
Average44 °F84%29.85 "Hg
* Reported Aug 15 8:00 PM — Aug 30 8:00 PM, Coral Harbour, Weather by CustomWeather, © 2014

Note: Actual official high and low records may vary slightly from our data, if they occured in-between our weather recording intervals... More about our weather records

Advertising

Coral Harbour weather history for previous 24 hours

 ConditionsComfort  
Time TempWeatherWind HumidityBarometerVisibility
8:00 PM
Aug 30
39 °FOvercast.22 mph81%29.46 "Hg15 mi
7:00 PM39 °FLight rain. Overcast.17 mph87%29.44 "Hg15 mi
6:00 PM41 °FLight rain. More clouds than sun.21 mph87%29.42 "Hg15 mi
5:00 PM43 °FLight rain. Overcast.20 mph87%29.40 "Hg15 mi
4:00 PM41 °FLight rain. Mostly cloudy.16 mph87%29.39 "Hg15 mi
3:00 PM43 °FLight rain. Mostly cloudy.16 mph81%29.36 "Hg15 mi
2:00 PM48 °FBroken clouds.14 mph76%29.34 "Hg15 mi
1:00 PM46 °FPartly sunny.18 mph76%29.32 "Hg15 mi
12:00 PM46 °FPartly sunny.22 mph76%29.31 "Hg15 mi
11:00 AM45 °FPartly sunny.20 mph81%29.30 "Hg15 mi
10:00 AM43 °FScattered showers. Low clouds.15 mph87%29.29 "Hg15 mi
9:00 AM43 °FScattered showers. Partly sunny.21 mph81%29.27 "Hg15 mi
8:00 AM43 °FOvercast.15 mph87%29.26 "Hg15 mi
7:00 AM43 °FLight rain. Low clouds.17 mph87%29.24 "Hg8 mi
6:00 AM41 °FLight rain. Fog.9 mph100%29.23 "Hg2 mi
5:00 AM39 °FLight rain. Low clouds.8 mph100%29.21 "Hg8 mi
4:00 AM39 °FLight rain. Fog.9 mph100%29.20 "Hg2 mi
3:00 AM39 °FLight rain. Fog.7 mph100%29.19 "Hg2 mi
2:00 AM39 °FLight rain. Fog.2 mph100%29.18 "Hg3 mi
1:00 AM41 °FLight rain. Fog.3 mph93%29.17 "Hg3 mi
12:00 AM41 °FLight rain. Fog.6 mph100%29.16 "Hg6 mi
11:00 PM
Aug 29
41 °FLight rain. Fog.7 mph100%29.17 "Hg3 mi
10:00 PM43 °FLight rain. Fog.13 mph93%29.17 "Hg4 mi
Weather by CustomWeather, © 2014

See weather overviewHow to use our weather pages